Location: Darmstadt
(49.8706°N, 8.6494°E)
Time: 07:00:24
(UTC+01:00)

FALCON 9 DEB - Pass Details

Date: 31 October 2020
Orbit: 377 x 396 km, 53.0° (Epoch: 03 December)

Event Time Altitude Azimuth Distance (km) Brightness Sun altitude
Rises 19:08:39 0° 276° (W) 2,308 8.4 -20.6°
Reaches altitude 10° 19:10:47 10° 283° (WNW) 1,447 6.9 -20.9°
Enters shadow 19:13:31 42° 333° (NNW) 577 3.9 -21.3°
